Hourly Weather Roundup
Issued by NWS Central Illinois

Home | Current Version | Previous Version | Text Only | Print | Product List | Glossary On
Versions: 1 2 3 4 5 6 7 8 9 10 11 12 13 14 15 16 17 18 19 20 21 22 23 24 25 26 27 28 29 30 31 32 33 34 35 36 37 38 39 40 41 42 43 44 45 46 47 48 49 50
000
NZUS43 KILX 281710
HWRILX

AREA WEATHER ROUNDUP
NATIONAL WEATHER SERVICE, LINCOLN IL
1200 PM CDT FRI AUG 28 2015


CITY           SKY/WX    TMP DP  RH WIND       PRES   REMARKS
BLOOMINGTON    CLOUDY    76  62  61 S8        30.16S
CHAMPAIGN      CLOUDY    77  60  55 S6        30.16F
DANVILLE       PTSUNNY   74  63  66 CALM      30.15S
DECATUR        LGT RAIN  77  58  51 SE9       30.15S
EFFINGHAM      PTSUNNY   77  56  47 SE9       30.17F
FLORA          PTSUNNY   77  58  51 SE6       30.16F
GALESBURG      CLOUDY    70  62  76 SE6       30.11S
JACKSONVILLE   CLOUDY    77  62  58 SE13      30.10F
LACON          CLOUDY    71  62  72 S6        30.12F
LAWRENCEVILLE  PTSUNNY   77  57  50 E7        30.17S
LITCHFIELD     PTSUNNY   75  58  55 SE9       30.13F
$$


CITY           SKY/WX    TMP DP  RH WIND       PRES   REMARKS
LINCOLN        CLOUDY    78  61  55 S7        30.13F
MACOMB         CLOUDY    72  62  71 S7        30.12F
MATTOON        PTSUNNY   77  57  50 S8        30.15F
MT CARMEL AP   PTSUNNY   77  54  44 E6        30.17R
OLNEY-NOBLE AP   N/A     75  61  60 SE8       30.16F
PARIS          MOSUNNY   76  60  55 S6        30.17F
PEORIA         CLOUDY    74  61  63 SE8       30.12F
PONTIAC        CLOUDY    75  64  67 S6        30.16S
RANTOUL        CLOUDY    77  62  60 SE7       30.16F
ROBINSON       PTSUNNY   78  59  51 SE5       30.18S
SPRINGFIELD    CLOUDY    77  61  57 S9        30.12F
TAYLORVILLE    PTSUNNY   75  61  60 S6        30.14S
$$

...REGIONAL REPORTS...


CITY           SKY/WX    TMP DP  RH WIND       PRES   REMARKS
CHICAGO O`HARE CLOUDY    71  59  65 SW9       30.14S
KANKAKEE       CLOUDY    74  64  71 CALM      30.16F
MOLINE         CLOUDY    68  61  78 SE7       30.10S
MOUNT STERLING CLOUDY    72  63  73 SE8       30.09F
MOUNT VERNON   PTSUNNY   79  59  50 E8        30.16S HX  80
PITTSFIELD     CLOUDY    76  62  63 SE10      30.10F
QUINCY         CLOUDY    72  60  66 S14       30.08S
ROCKFORD       CLOUDY    68  60  75 S6        30.15S
$$


CITY           SKY/WX    TMP DP  RH WIND       PRES   REMARKS
BURLINGTON     CLOUDY    68  62  81 SE10      30.07F
CEDAR RAPIDS   LGT RAIN  63  62  97 E8        30.06S
DES MOINES     LGT RAIN  67  62  84 SE17      29.92F
KIRKSVILLE     CLOUDY    69  60  73 S14       30.04S
OTTUMWA        CLOUDY    67  63  87 SE14      30.00S
ST LOUIS       CLOUDY    79  58  48 SE15      30.11F HX  80
$$


CITY           SKY/WX    TMP DP  RH WIND       PRES   REMARKS
TERRE HAUTE    PTSUNNY   77  56  48 S7        30.18S
EVANSVILLE     MOSUNNY   78  57  48 E9        30.15F
INDIANAPOLIS   PTSUNNY   76  54  46 SE6       30.18R
LAFAYETTE      PTSUNNY   75  57  53 S7        30.17F
MADISON        LGT RAIN  65  58  78 S3        30.13S
MILWAUKEE      CLOUDY    73  59  61 VRB7      30.13S
$$




USA.gov is the U.S. government's official web portal to all federal, state and local government web resources and services.